Tracking 28920 objects as of 26-May-2024
HD Live streaming from Space Station
objects crossing your sky now

AEROCUBE 4.5B

Track AEROCUBE 4.5B now!
10-day predictions
AEROCUBE 4.5B is classified as:


NORAD ID: 38768
Int'l Code: 2012-048L
Perigee: 441.4 km
Apogee: 560.5 km
Inclination: 64.7 °
Period: 94.5 minutes
Semi major axis: 6871 km
RCS: Unknown
Launch date: September 13, 2012
Source: United States (US)
Launch site: AIR FORCE WESTERN TEST RANGE (AFWTR)
Your satellite tracking list
Your tracking list is empty




NASA's NSSDC Master Catalog

Two Line Element Set (TLE):
1 38768U 12048L   24147.78820614  .00024922  00000-0  92557-3 0  9991
2 38768  64.6567 309.8860 0086666  13.3848 346.9548 15.24005349258165
Source of the keplerian elements: AFSPC